TimePDT,TemperatureF,Dew PointF,Humidity,Sea Level PressureIn,VisibilityMPH,Wind Direction,Wind SpeedMPH,Gust SpeedMPH,PrecipitationIn,Events,Conditions,WindDirDegrees,DateUTC
12:56 AM,57.9,51.1,78,29.99,10.0,West,8.1,-,N/A,,Clear,260,2012-10-07 07:56:00
1:56 AM,57.0,51.1,81,30.00,10.0,West,4.6,-,N/A,,Scattered Clouds,280,2012-10-07 08:56:00
2:04 AM,57.2,51.8,82,30.00,10.0,West,6.9,-,N/A,,Mostly Cloudy,270,2012-10-07 09:04:00
2:28 AM,57.2,51.8,82,30.00,10.0,West,4.6,-,N/A,,Partly Cloudy,260,2012-10-07 09:28:00
2:56 AM,57.0,51.1,81,29.99,10.0,SSW,4.6,-,N/A,,Clear,200,2012-10-07 09:56:00
3:32 AM,57.2,51.8,82,29.99,10.0,WSW,11.5,-,N/A,,Partly Cloudy,250,2012-10-07 10:32:00
3:56 AM,57.0,51.1,81,29.99,10.0,West,10.4,-,N/A,,Partly Cloudy,260,2012-10-07 10:56:00
4:56 AM,55.9,51.1,84,29.99,10.0,West,4.6,-,N/A,,Partly Cloudy,280,2012-10-07 11:56:00
5:56 AM,55.9,51.1,84,29.99,10.0,WNW,8.1,-,N/A,,Partly Cloudy,290,2012-10-07 12:56:00
6:56 AM,55.9,51.1,84,30.00,10.0,West,8.1,-,N/A,,Scattered Clouds,260,2012-10-07 13:56:00
7:56 AM,55.9,51.1,84,30.02,10.0,West,8.1,-,N/A,,Scattered Clouds,270,2012-10-07 14:56:00
8:56 AM,57.9,52.0,81,30.03,10.0,West,5.8,-,N/A,,Scattered Clouds,280,2012-10-07 15:56:00
9:56 AM,61.0,52.0,72,30.02,10.0,WNW,6.9,-,N/A,,Partly Cloudy,300,2012-10-07 16:56:00
10:56 AM,63.0,52.0,67,30.01,10.0,NW,6.9,-,N/A,,Partly Cloudy,320,2012-10-07 17:56:00
11:56 AM,66.9,48.9,52,30.00,10.0,NW,8.1,-,N/A,,Partly Cloudy,310,2012-10-07 18:56:00
12:56 PM,66.9,51.1,57,29.99,10.0,NW,11.5,-,N/A,,Partly Cloudy,320,2012-10-07 19:56:00
1:56 PM,69.1,48.0,47,29.98,10.0,West,13.8,-,N/A,,Partly Cloudy,270,2012-10-07 20:56:00
2:56 PM,68.0,48.0,49,29.96,10.0,WNW,15.0,-,N/A,,Scattered Clouds,290,2012-10-07 21:56:00
3:56 PM,66.9,48.0,51,29.96,10.0,West,18.4,-,N/A,,Scattered Clouds,280,2012-10-07 22:56:00
4:56 PM,64.9,48.9,56,29.95,10.0,West,20.7,-,N/A,,Scattered Clouds,270,2012-10-07 23:56:00
5:56 PM,63.0,48.9,60,29.96,10.0,West,25.3,-,N/A,,Scattered Clouds,260,2012-10-08 00:56:00
6:56 PM,60.1,50.0,69,29.97,10.0,West,20.7,-,N/A,,Scattered Clouds,270,2012-10-08 01:56:00
7:56 PM,60.1,48.9,67,29.98,10.0,West,10.4,-,N/A,,Scattered Clouds,280,2012-10-08 02:56:00
8:56 PM,59.0,50.0,72,29.99,10.0,WNW,9.2,-,N/A,,Partly Cloudy,290,2012-10-08 03:56:00
9:43 PM,59.0,50.0,72,30.00,10.0,West,9.2,-,N/A,,Partly Cloudy,270,2012-10-08 04:43:00
9:56 PM,59.0,50.0,72,30.01,10.0,WSW,9.2,-,N/A,,Partly Cloudy,250,2012-10-08 04:56:00
10:56 PM,57.9,51.1,78,30.01,10.0,West,9.2,-,N/A,,Partly Cloudy,270,2012-10-08 05:56:00
11:56 PM,57.9,51.1,78,30.01,10.0,West,8.1,-,N/A,,Partly Cloudy,260,2012-10-08 06:56:00